SCP
0 0 0 0 0 0 0 0 0 0 0 0 0 0 0 0 0 0 0 0 0 0 0 0 0 0 0 0 0 0 0 0 0 0 0 0 0 0 0 0 0 0 0
0 0 0 0 0 0 0 0 0 0 0 0 0 0 0 0 0 0 0 0 0 0 0 0 0 0 0 0 0 0 0 0 0 0 0 0 0 0 0 0 0 0 0
0 0 0 0 0 0 0 0 0 0 0 0 0 0 0 0 0 0 0 0 0 0 0 0 0 0 0 0 0 0 0 0 0 0 0 0 0 0 0 0 0 0 0
0 0 0 0 0 0 0 0 0 0 0 0 0 0 0 0 0 0 0 0 0 0 0 0 0 0 0 0 0 0 0 0 0 0 0 0 0 0 0 0 0 0 0
0 0 0 0 0 0 0 0 0 0 0 0 0 0 0 0 0 0 0 0 0 0 0 0 0 0 0 0 0 0 0 0 0 0 0 0 0 0 0 0 0 0 0
0 0 0 0 0 0 0 0 0 0 0 0 0 0 0 0 0 0 0 0 0 0 0 0 0 0 0 0 0 0 0 0 0 0 0 0 0 0 0 0 0 0 0
0 0 0 0 0 0 0 0 0 0 0 0 0 0 0 0 0 0 0 0 0 0 0 0 0 0 0 0 0 0 0 0 0 0 0 0 0 0 0 0 0 0 0
0 0 0 0 0 0 0 0 0 0 0 0 0 0 0 0 0 0 0 0 0 0 0 0 0 0 0 0 0 0 0 0 0 0 0 0 0 0 0 0 0 0 0
0 0 0 0 0 0 0 0 0 0 0 0 0 0 0 0 0 0 0 0 0 0 0 0 0 0 0 0 0 0 0 0 0 0 0 0 0 0 0 0 0 0 0
0 0 0 0 0 0 0 0 0 0 0 0 0 0 0 0 0 0 0 0 0 0 0 0 0 0 0 0 0 0 0 0 0 0 0 0 0 0 0 0 0 0 0
0 0 0 0 0 0 0 0 0 0 0 0 0 0 0 0 0 0 0 0 0 0 0 0 0 0 0 0 0 0 0 0 0 0 0 0 0 0 0 0 0 0 0
0 0 0 0 0 0 0 0 0 0 0 0 0 0 0 0 0 0 0 0 0 0 0 0 0 0 0 0 0 0 0 0 0 0 0 0 0 0 0 0 0 0 0
0 0 0 0 0 0 0 0 0 0 0 0 0 0 0 0 0 0 0 0 0 0 0 0 0 0 0 0 0 0 0 0 0 0 0 0 0 0 0 0 0 0 0
0 0 0 0 0 0 0 0 0 0 0 0 0 0 0 0 0 0 0 0 0 0 0 0 0 0 0 0 0 0 0 0 0 0 0 0 0 0 0 0 0 0 0
0 0 0 0 0 0 0 0 0 0 0 0 0 0 0 0 0 0 0 0 0 0 0 0 0 0 0 0 0 0 0 0 0 0 0 0 0 0 0 0 0 0 0
0 0 0 0 0 0 0 0 0 0 0 0 0 0 0 0 0 0 0 0 0 0 0 0 0 0 0 0 0 0 0 0 0 0 0 0 0 0 0 0 0 0 0
0 0 0 0 0 0 0 0 0 0 0 0 0 0 0 0 0 0 0 0 0 0 0 0 0 0 0 0 0 0 0 0 0 0 0 0 0 0 0 0 0 0 0
0 0 0 0 0 0 0 0 0 0 0 0 0 0 0 0 0 0 0 0 0 0 0 0 0 0 0 0 0 0 0 0 0 0 0 0 0 0 0 0 0 0 0
0 0 0 0 0 0 0 0 0 0 0 0 0 0 0 0 0 0 0 0 0 0 0 0 0 0 0 0 0 0 0 0 0 0 0 0 0 0 0 0 0 0 0
0 0 0 0 0 0 0 0 0 0 0 0 0 0 0 0 0 0 0 0 0 0 0 0 0 0 0 0 0 0 0 0 0 0 0 0 0 0 0 0 0 0 0
0 0 0 0 0 0 0 0 0 0 0 0 0 0 0 0 0 0 0 0 0 0 0 0 0 0 0 0 0 0 0 0 0 0 0 0 0 0 0 0 0 0 0
0 0 0 0 0 0 0 0 0 0 0 0 0 0 0 0 0 0 0 0 0 0 0 0 0 0 0 0 0 0 0 0 0 0 0 0 0 0 0 0 0 0 0
0 0 0 0 0 0 0 0 0 0 0 0 0 0 0 0 0 0 0 0 0 0 0 0 0 0 0 0 0 0 0 0 0 0 0 0 0 0 0 0 0 0 0
0 0 0 0 0 0 0 0 0 0 0 0 0 0 0 0 0 0 0 0 0 0 0 0 0 0 0 0 0 0 0 0 0 0 0 0 0 0 0 0 0 0 0
0 0 0 0 0 0 0 0 0 0 0 0 0 0 0 0 0 0 0 0 0 0 0 0 0 0 0 0 0 0 0 0 0 0 0 0 0 0 0 0 0 0 0
0 0 0 0 0 0 0 0 0 0 0 0 0 0 0 0 0 0 0 0 0 0 0 0 0 0 0 0 0 0 0 0 0 0 0 0 0 0 0 0 0 0 0
Wind_Speed_500mb
19 18 16 13 10 7 4 2 5 9 13 17 22 28 33 37 42 47 53 57 62 65 69 72 75 73 76 78 79 80 81 82 92 108 100 95 88 84 80 74 74 73 72
16 13 10 7 5 4 5 9 13 18 20 23 26 30 35 40 45 51 56 59 63 66 68 71 74 74 76 76 78 82 84 83 86 100 94 91 92 87 84 81 76 71 74
10 8 6 5 6 7 9 12 17 21 24 26 29 32 35 39 43 46 52 56 60 64 68 71 74 76 78 77 76 77 75 78 82 87 95 92 95 92 87 83 81 78 77
8 7 6 7 10 13 16 18 20 23 27 31 34 36 38 40 44 46 49 53 55 58 61 65 68 71 74 74 74 74 72 75 76 82 90 92 96 96 90 87 86 81 81
7 7 9 12 15 18 20 24 28 31 36 40 42 45 46 49 52 56 58 59 61 62 62 62 63 64 66 69 67 71 73 77 80 84 92 95 98 98 94 89 89 85 85
8 11 15 18 21 23 26 29 33 37 40 43 46 49 52 55 59 61 65 70 70 72 73 71 69 66 63 62 61 65 70 74 79 80 89 93 96 95 94 89 86 84 86
8 11 14 18 21 25 29 33 36 39 42 44 47 51 52 54 58 61 65 70 73 73 74 75 75 71 68 66 63 60 62 66 71 73 83 89 92 90 91 90 87 83 82
14 17 19 23 27 32 36 39 43 45 48 50 52 55 60 57 61 65 67 70 73 73 71 70 71 72 69 68 70 75 72 67 66 68 73 80 78 79 81 86 87 80 75
17 21 26 30 34 38 40 44 47 51 53 57 59 63 66 68 67 69 71 73 74 74 71 68 65 67 65 61 65 71 73 72 65 65 70 76 79 77 65 67 69 70 71
19 25 30 36 41 45 49 51 54 57 61 62 65 65 68 70 70 69 69 72 75 72 69 65 62 57 53 52 54 59 67 67 64 64 65 67 66 67 58 58 54 55 56
27 33 39 44 49 54 57 58 63 65 68 69 68 68 68 68 70 70 68 66 66 68 66 61 55 49 47 48 49 52 55 59 57 56 58 55 53 49 46 40 44 43 40
34 39 43 47 52 56 60 61 62 66 69 72 73 74 73 70 67 69 67 58 53 56 55 52 46 41 39 41 44 48 50 50 47 44 42 42 40 38 35 31 27 27 24
39 43 48 52 56 60 64 66 68 68 69 73 73 72 71 67 61 59 58 54 47 46 43 39 33 34 38 37 32 33 32 26 27 29 32 32 34 34 30 24 17 13 19
41 43 47 52 54 57 59 62 66 68 69 70 70 70 69 67 61 52 50 46 42 37 35 30 31 34 31 25 26 24 22 24 24 21 23 26 26 21 17 15 13 12 12
40 45 49 54 57 60 61 62 63 65 65 68 70 67 63 62 54 45 42 42 39 32 27 28 30 27 25 23 22 20 20 22 19 20 20 20 16 12 7 3 8 18 24
40 45 50 56 59 63 66 69 64 66 66 62 62 62 59 56 47 42 38 34 32 28 27 27 24 22 20 20 20 17 16 17 17 17 17 14 9 8 2 8 14 11 10
43 48 54 60 63 67 69 71 77 74 69 67 62 55 54 53 44 41 37 34 32 29 24 22 22 21 18 16 14 13 12 13 15 16 11 9 10 11 11 10 6 3 5
45 51 56 61 63 66 68 69 69 71 74 73 61 52 49 49 47 45 39 37 32 34 30 27 25 23 20 16 13 14 12 11 11 9 6 4 4 6 7 8 10 10 10
48 52 57 60 63 66 69 70 69 67 64 65 61 53 50 49 48 45 42 41 37 41 38 35 33 29 24 21 18 15 13 12 12 11 10 10 11 13 14 13 13 13 15
49 51 54 57 60 62 64 66 65 63 61 58 55 50 49 52 48 46 42 41 40 41 39 36 33 30 26 24 20 18 17 15 14 14 14 15 15 16 17 18 18 19 19
50 51 53 55 57 59 61 62 63 60 58 54 50 51 52 49 48 45 43 41 40 40 38 36 33 30 28 25 23 21 19 18 17 17 17 18 19 20 21 22 22 22 21
51 52 52 54 56 58 59 59 59 58 55 51 49 53 49 45 45 44 42 41 40 38 37 35 32 30 28 27 24 23 23 22 21 23 25 26 27 26 26 24 22 20 18
48 49 51 52 53 56 57 56 54 53 52 49 49 49 47 45 44 42 41 39 37 36 34 33 32 30 28 25 25 26 25 26 28 30 33 32 30 27 24 20 18 17 17
47 49 51 52 53 53 52 51 48 48 48 46 44 42 42 41 40 39 37 36 36 35 34 34 33 31 27 27 28 28 30 32 35 37 35 30 26 23 21 20 19 19 19
45 46 48 49 48 48 47 46 45 43 42 43 41 39 37 37 36 36 35 35 35 35 35 36 37 36 34 33 35 39 40 39 40 37 31 27 25 24 22 21 21 22 21
43 44 44 44 44 44 44 44 44 43 42 42 41 39 38 36 36 35 34 34 35 36 36 37 38 39 40 42 42 41 40 42 38 33 29 28 28 27 26 25 25 25 25
Wind_Direction_500mb
110 102 99 97 92 89 73 341 295 281 285 285 288 290 290 289 287 284 283 282 281 280 280 279 280 280 280 280 280 280 279 279 278 284 285 288 288 289 290 288 284 280 279
111 106 100 87 61 17 336 318 311 309 304 299 297 295 293 291 290 290 289 287 285 284 283 282 282 283 282 280 281 283 282 283 281 283 286 285 288 291 291 288 287 279 276
107 94 73 38 12 354 343 333 328 326 322 319 315 311 308 305 300 296 294 293 293 293 292 290 289 287 284 284 283 283 284 285 283 283 286 288 290 290 291 289 286 284 281
95 77 49 29 13 1 350 345 339 333 330 328 326 325 322 318 314 311 307 303 301 298 295 293 292 290 289 287 285 283 281 278 280 281 283 286 287 288 289 287 288 286 285
82 48 22 7 356 347 339 337 338 334 331 329 326 325 323 321 318 316 313 311 310 308 306 302 297 292 288 286 282 282 282 281 280 281 282 284 284 286 287 291 289 290 287
23 7 354 343 336 334 332 333 331 328 327 325 323 321 320 319 315 314 312 309 308 307 306 306 303 300 296 289 281 276 277 280 279 280 282 283 285 287 290 290 291 289 286
345 340 334 330 329 328 333 333 329 326 324 323 322 320 318 318 315 312 310 308 306 305 304 302 300 299 298 296 290 283 278 276 277 281 281 281 284 285 287 286 285 285 287
340 336 332 331 331 331 330 327 325 323 322 321 320 319 316 317 314 311 309 307 305 304 304 302 300 299 297 295 292 290 288 285 283 280 279 283 284 284 282 283 286 287 283
339 334 330 327 325 323 321 320 319 316 316 315 316 316 315 315 314 312 309 306 303 301 298 296 296 297 299 297 295 296 295 293 292 288 284 284 286 286 282 280 279 277 273
324 323 321 319 318 316 315 313 313 311 311 311 311 311 311 311 311 310 309 307 304 301 298 297 298 298 298 298 297 296 296 299 297 292 287 286 287 290 286 276 278 274 269
319 318 317 314 312 310 309 308 307 306 306 307 307 308 309 310 311 311 310 306 303 300 300 301 301 303 302 301 300 299 300 303 303 299 302 302 303 301 297 283 277 270 265
311 310 308 306 305 305 304 306 305 307 308 308 308 308 309 309 310 309 309 306 302 300 303 306 309 307 304 305 305 305 302 301 302 306 309 315 316 316 310 297 276 266 247
308 307 306 306 305 305 305 306 307 308 309 307 306 306 306 307 309 307 305 304 303 301 304 307 306 310 313 314 316 318 321 328 325 324 322 316 315 317 312 294 277 251 235
305 306 307 306 307 306 306 307 308 309 310 308 305 303 303 305 310 309 304 302 305 306 305 306 312 315 317 321 336 346 354 344 336 328 314 320 331 328 309 289 257 224 194
308 310 310 310 311 310 308 308 307 307 309 308 305 302 301 304 307 307 306 306 307 306 302 306 313 319 327 332 336 334 343 347 351 345 351 349 342 332 329 273 186 159 167
309 312 314 314 315 314 313 311 308 307 306 306 304 299 293 292 297 300 302 297 300 300 299 307 311 318 322 328 341 342 344 345 352 345 353 341 314 317 154 139 157 167 154
311 313 314 314 314 314 314 313 313 311 308 305 304 297 289 293 290 290 291 297 294 289 291 296 305 313 321 322 322 325 336 346 352 358 353 32 73 99 128 134 148 230 277
307 310 310 309 309 310 311 311 311 311 310 310 306 301 291 288 284 282 283 287 283 281 281 283 291 298 301 305 312 312 322 327 328 317 318 301 284 289 285 280 282 284 283
301 303 305 307 308 309 309 309 309 309 307 306 306 301 297 287 282 276 279 280 275 271 277 273 278 280 281 283 286 289 296 303 309 309 299 289 286 284 285 288 288 287 287
296 300 303 305 307 308 308 307 306 305 303 302 299 297 294 289 282 277 279 277 272 268 267 266 266 266 268 268 271 274 278 285 288 288 287 286 285 284 283 284 286 284 282
297 300 302 304 307 308 308 307 305 303 300 297 294 287 285 282 277 276 277 274 270 266 264 261 259 256 254 255 259 264 268 272 276 280 282 283 283 281 279 277 275 277 279
296 299 302 305 307 309 309 308 305 302 298 294 287 284 284 276 273 273 274 273 269 264 260 258 255 252 253 255 261 268 272 276 281 287 290 290 289 287 284 282 282 280 278
298 302 304 306 308 308 308 307 305 300 297 293 288 284 280 276 274 273 272 271 266 261 258 254 252 252 255 262 267 270 275 281 286 290 289 288 286 283 280 278 276 276 276
304 305 306 308 308 307 305 304 302 299 298 296 292 288 284 279 276 274 272 269 266 263 260 257 255 255 259 266 271 275 279 284 288 286 284 280 274 272 274 275 275 274 273
302 304 306 305 305 303 303 302 302 301 300 297 295 292 288 283 279 275 273 271 269 267 266 266 264 261 260 262 269 277 282 285 284 280 273 266 266 268 270 271 273 274 275
299 302 303 303 302 301 302 303 302 301 299 298 296 293 291 288 285 281 278 275 274 273 272 272 272 272 272 273 276 278 279 278 273 267 261 264 266 268 269 272 274 276 279
Wind_Speed_850mb
19 18 16 13 10 7 4 2 5 9 13 17 22 28 33 37 42 47 53 57 62 65 69 72 75 73 76 78 79 80 81 82 92 108 100 95 88 84 80 74 74 73 72
16 13 10 7 5 4 5 9 13 18 20 23 26 30 35 40 45 51 56 59 63 66 68 71 74 74 76 76 78 82 84 83 86 100 94 91 92 87 84 81 76 71 74
10 8 6 5 6 7 9 12 17 21 24 26 29 32 35 39 43 46 52 56 60 64 68 71 74 76 78 77 76 77 75 78 82 87 95 92 95 92 87 83 81 78 77
8 7 6 7 10 13 16 18 20 23 27 31 34 36 38 40 44 46 49 53 55 58 61 65 68 71 74 74 74 74 72 75 76 82 90 92 96 96 90 87 86 81 81
7 7 9 12 15 18 20 24 28 31 36 40 42 45 46 49 52 56 58 59 61 62 62 62 63 64 66 69 67 71 73 77 80 84 92 95 98 98 94 89 89 85 85
8 11 15 18 21 23 26 29 33 37 40 43 46 49 52 55 59 61 65 70 70 72 73 71 69 66 63 62 61 65 70 74 79 80 89 93 96 95 94 89 86 84 86
8 11 14 18 21 25 29 33 36 39 42 44 47 51 52 54 58 61 65 70 73 73 74 75 75 71 68 66 63 60 62 66 71 73 83 89 92 90 91 90 87 83 82
14 17 19 23 27 32 36 39 43 45 48 50 52 55 60 57 61 65 67 70 73 73 71 70 71 72 69 68 70 75 72 67 66 68 73 80 78 79 81 86 87 80 75
17 21 26 30 34 38 40 44 47 51 53 57 59 63 66 68 67 69 71 73 74 74 71 68 65 67 65 61 65 71 73 72 65 65 70 76 79 77 65 67 69 70 71
19 25 30 36 41 45 49 51 54 57 61 62 65 65 68 70 70 69 69 72 75 72 69 65 62 57 53 52 54 59 67 67 64 64 65 67 66 67 58 58 54 55 56
27 33 39 44 49 54 57 58 63 65 68 69 68 68 68 68 70 70 68 66 66 68 66 61 55 49 47 48 49 52 55 59 57 56 58 55 53 49 46 40 44 43 40
34 39 43 47 52 56 60 61 62 66 69 72 73 74 73 70 67 69 67 58 53 56 55 52 46 41 39 41 44 48 50 50 47 44 42 42 40 38 35 31 27 27 24
39 43 48 52 56 60 64 66 68 68 69 73 73 72 71 67 61 59 58 54 47 46 43 39 33 34 38 37 32 33 32 26 27 29 32 32 34 34 30 24 17 13 19
41 43 47 52 54 57 59 62 66 68 69 70 70 70 69 67 61 52 50 46 42 37 35 30 31 34 31 25 26 24 22 24 24 21 23 26 26 21 17 15 13 12 12
40 45 49 54 57 60 61 62 63 65 65 68 70 67 63 62 54 45 42 42 39 32 27 28 30 27 25 23 22 20 20 22 19 20 20 20 16 12 7 3 8 18 24
40 45 50 56 59 63 66 69 64 66 66 62 62 62 59 56 47 42 38 34 32 28 27 27 24 22 20 20 20 17 16 17 17 17 17 14 9 8 2 8 14 11 10
43 48 54 60 63 67 69 71 77 74 69 67 62 55 54 53 44 41 37 34 32 29 24 22 22 21 18 16 14 13 12 13 15 16 11 9 10 11 11 10 6 3 5
45 51 56 61 63 66 68 69 69 71 74 73 61 52 49 49 47 45 39 37 32 34 30 27 25 23 20 16 13 14 12 11 11 9 6 4 4 6 7 8 10 10 10
48 52 57 60 63 66 69 70 69 67 64 65 61 53 50 49 48 45 42 41 37 41 38 35 33 29 24 21 18 15 13 12 12 11 10 10 11 13 14 13 13 13 15
49 51 54 57 60 62 64 66 65 63 61 58 55 50 49 52 48 46 42 41 40 41 39 36 33 30 26 24 20 18 17 15 14 14 14 15 15 16 17 18 18 19 19
50 51 53 55 57 59 61 62 63 60 58 54 50 51 52 49 48 45 43 41 40 40 38 36 33 30 28 25 23 21 19 18 17 17 17 18 19 20 21 22 22 22 21
51 52 52 54 56 58 59 59 59 58 55 51 49 53 49 45 45 44 42 41 40 38 37 35 32 30 28 27 24 23 23 22 21 23 25 26 27 26 26 24 22 20 18
48 49 51 52 53 56 57 56 54 53 52 49 49 49 47 45 44 42 41 39 37 36 34 33 32 30 28 25 25 26 25 26 28 30 33 32 30 27 24 20 18 17 17
47 49 51 52 53 53 52 51 48 48 48 46 44 42 42 41 40 39 37 36 36 35 34 34 33 31 27 27 28 28 30 32 35 37 35 30 26 23 21 20 19 19 19
45 46 48 49 48 48 47 46 45 43 42 43 41 39 37 37 36 36 35 35 35 35 35 36 37 36 34 33 35 39 40 39 40 37 31 27 25 24 22 21 21 22 21
43 44 44 44 44 44 44 44 44 43 42 42 41 39 38 36 36 35 34 34 35 36 36 37 38 39 40 42 42 41 40 42 38 33 29 28 28 27 26 25 25 25 25
Wind_Direction_850mb
110 102 99 97 92 89 73 341 295 281 285 285 288 290 290 289 287 284 283 282 281 280 280 279 280 280 280 280 280 280 279 279 278 284 285 288 288 289 290 288 284 280 279
111 106 100 87 61 17 336 318 311 309 304 299 297 295 293 291 290 290 289 287 285 284 283 282 282 283 282 280 281 283 282 283 281 283 286 285 288 291 291 288 287 279 276
107 94 73 38 12 354 343 333 328 326 322 319 315 311 308 305 300 296 294 293 293 293 292 290 289 287 284 284 283 283 284 285 283 283 286 288 290 290 291 289 286 284 281
95 77 49 29 13 1 350 345 339 333 330 328 326 325 322 318 314 311 307 303 301 298 295 293 292 290 289 287 285 283 281 278 280 281 283 286 287 288 289 287 288 286 285
82 48 22 7 356 347 339 337 338 334 331 329 326 325 323 321 318 316 313 311 310 308 306 302 297 292 288 286 282 282 282 281 280 281 282 284 284 286 287 291 289 290 287
23 7 354 343 336 334 332 333 331 328 327 325 323 321 320 319 315 314 312 309 308 307 306 306 303 300 296 289 281 276 277 280 279 280 282 283 285 287 290 290 291 289 286
345 340 334 330 329 328 333 333 329 326 324 323 322 320 318 318 315 312 310 308 306 305 304 302 300 299 298 296 290 283 278 276 277 281 281 281 284 285 287 286 285 285 287
340 336 332 331 331 331 330 327 325 323 322 321 320 319 316 317 314 311 309 307 305 304 304 302 300 299 297 295 292 290 288 285 283 280 279 283 284 284 282 283 286 287 283
339 334 330 327 325 323 321 320 319 316 316 315 316 316 315 315 314 312 309 306 303 301 298 296 296 297 299 297 295 296 295 293 292 288 284 284 286 286 282 280 279 277 273
324 323 321 319 318 316 315 313 313 311 311 311 311 311 311 311 311 310 309 307 304 301 298 297 298 298 298 298 297 296 296 299 297 292 287 286 287 290 286 276 278 274 269
319 318 317 314 312 310 309 308 307 306 306 307 307 308 309 310 311 311 310 306 303 300 300 301 301 303 302 301 300 299 300 303 303 299 302 302 303 301 297 283 277 270 265
311 310 308 306 305 305 304 306 305 307 308 308 308 308 309 309 310 309 309 306 302 300 303 306 309 307 304 305 305 305 302 301 302 306 309 315 316 316 310 297 276 266 247
308 307 306 306 305 305 305 306 307 308 309 307 306 306 306 307 309 307 305 304 303 301 304 307 306 310 313 314 316 318 321 328 325 324 322 316 315 317 312 294 277 251 235
305 306 307 306 307 306 306 307 308 309 310 308 305 303 303 305 310 309 304 302 305 306 305 306 312 315 317 321 336 346 354 344 336 328 314 320 331 328 309 289 257 224 194
308 310 310 310 311 310 308 308 307 307 309 308 305 302 301 304 307 307 306 306 307 306 302 306 313 319 327 332 336 334 343 347 351 345 351 349 342 332 329 273 186 159 167
309 312 314 314 315 314 313 311 308 307 306 306 304 299 293 292 297 300 302 297 300 300 299 307 311 318 322 328 341 342 344 345 352 345 353 341 314 317 154 139 157 167 154
311 313 314 314 314 314 314 313 313 311 308 305 304 297 289 293 290 290 291 297 294 289 291 296 305 313 321 322 322 325 336 346 352 358 353 32 73 99 128 134 148 230 277
307 310 310 309 309 310 311 311 311 311 310 310 306 301 291 288 284 282 283 287 283 281 281 283 291 298 301 305 312 312 322 327 328 317 318 301 284 289 285 280 282 284 283
301 303 305 307 308 309 309 309 309 309 307 306 306 301 297 287 282 276 279 280 275 271 277 273 278 280 281 283 286 289 296 303 309 309 299 289 286 284 285 288 288 287 287
296 300 303 305 307 308 308 307 306 305 303 302 299 297 294 289 282 277 279 277 272 268 267 266 266 266 268 268 271 274 278 285 288 288 287 286 285 284 283 284 286 284 282
297 300 302 304 307 308 308 307 305 303 300 297 294 287 285 282 277 276 277 274 270 266 264 261 259 256 254 255 259 264 268 272 276 280 282 283 283 281 279 277 275 277 279
296 299 302 305 307 309 309 308 305 302 298 294 287 284 284 276 273 273 274 273 269 264 260 258 255 252 253 255 261 268 272 276 281 287 290 290 289 287 284 282 282 280 278
298 302 304 306 308 308 308 307 305 300 297 293 288 284 280 276 274 273 272 271 266 261 258 254 252 252 255 262 267 270 275 281 286 290 289 288 286 283 280 278 276 276 276
304 305 306 308 308 307 305 304 302 299 298 296 292 288 284 279 276 274 272 269 266 263 260 257 255 255 259 266 271 275 279 284 288 286 284 280 274 272 274 275 275 274 273
302 304 306 305 305 303 303 302 302 301 300 297 295 292 288 283 279 275 273 271 269 267 266 266 264 261 260 262 269 277 282 285 284 280 273 266 266 268 270 271 273 274 275
299 302 303 303 302 301 302 303 302 301 299 298 296 293 291 288 285 281 278 275 274 273 272 272 272 272 272 273 276 278 279 278 273 267 261 264 266 268 269 272 274 276 279